Tracking 29892 objects as of 21-Nov-2024
HD Live streaming from Space Station
objects crossing your sky now

STARLINK-5651

Track STARLINK-5651 now!
10-day predictions
STARLINK-5651 is classified as:


NORAD ID: 55357
Int'l Code: 2023-013AC
Perigee: 565.6 km
Apogee: 566.9 km
Inclination: 43.0 °
Period: 95.8 minutes
Semi major axis: 6937 km
RCS: Unknown
Launch date: January 26, 2023
Source: United States (US)
Launch site: AIR FORCE EASTERN TEST RANGE (AFETR)
Your satellite tracking list
Your tracking list is empty




NASA's NSSDC Master Catalog

Two Line Element Set (TLE):
1 55357U 23013AC  24326.10658731  .00000813  00000-0  75214-4 0  9997
2 55357  43.0035 353.3559 0000925 264.0079  96.0658 15.02539027100907
Source of the keplerian elements: AFSPC